| time (UTC) | temp C | wind direction | speed KPH | gust KPH | rain 1hr cm | rain 24hr cm | rain mn cm | humidity % | barometer mb |
| 20260510081820 | 8 | 43 | 0.0 | 3.2 | 0.00 | 0.00 | 0.00 | 93 | 1030.3 |
| 20260510081316 | 9 | 37 | 3.2 | 3.2 | 0.00 | 0.00 | 0.00 | 93 | 1030.3 |
| 20260510080812 | 9 | 257 | 1.6 | 4.8 | 0.00 | 0.00 | 0.00 | 92 | 1030.4 |
| 20260510080307 | 9 | 155 | 1.6 | 4.8 | 0.00 | 0.00 | 0.00 | 93 | 1030.1 |
| 20260510075805 | 9 | 157 | 0.0 | 1.6 | 0.00 | 0.00 | 0.00 | 92 | 1030.3 |
| 20260510075305 | 9 | 128 | 3.2 | 4.8 | 0.00 | 0.00 | 0.00 | 92 | 1030.4 |
| 20260510074758 | 9 | 275 | 1.6 | 3.2 | 0.00 | 0.00 | 0.00 | 92 | 1030.4 |
| 20260510074255 | 9 | 77 | 1.6 | 3.2 | 0.00 | 0.00 | 0.00 | 91 | 1030.2 |
| 20260510073752 | 9 | 47 | 0.0 | 1.6 | 0.00 | 0.00 | 0.00 | 91 | 1030.3 |
| 20260510073247 | 9 | 286 | 0.0 | 4.8 | 0.00 | 0.00 | 0.00 | 92 | 1030.2 |
| 20260510072743 | 9 | 69 | 0.0 | 1.6 | 0.00 | 0.00 | 0.00 | 92 | 1029.5 |
| 20260510072240 | 10 | 112 | 1.6 | 4.8 | 0.00 | 0.00 | 0.00 | 92 | 1029.5 |
| 20260510071737 | 10 | 65 | 1.6 | 3.2 | 0.00 | 0.00 | 0.00 | 92 | 1029.8 |
| 20260510071233 | 10 | 121 | 1.6 | 3.2 | 0.00 | 0.00 | 0.00 | 93 | 1029.9 |
| 20260510070732 | 10 | 88 | 0.0 | 3.2 | 0.00 | 0.00 | 0.00 | 93 | 1029.9 |
| 20260510070229 | 10 | 125 | 3.2 | 4.8 | 0.00 | 0.00 | 0.00 | 94 | 1030.0 |
| 20260510065723 | 10 | 352 | 0.0 | 3.2 | 0.00 | 0.00 | 0.00 | 94 | 1029.9 |
| 20260510065220 | 10 | 275 | 3.2 | 4.8 | 0.00 | 0.00 | 0.00 | 94 | 1029.6 |
| 20260510064717 | 10 | 109 | 3.2 | 8.0 | 0.00 | 0.00 | 0.00 | 95 | 1029.5 |
| 20260510064215 | 10 | 336 | 0.0 | 3.2 | 0.00 | 0.00 | 0.00 | 95 | 1029.5 |
| 20260510063711 | 10 | 111 | 4.8 | 9.7 | 0.00 | 0.00 | 0.00 | 95 | 1029.3 |
| 20260510063207 | 10 | 77 | 4.8 | 8.0 | 0.00 | 0.00 | 0.00 | 96 | 1029.3 |
| 20260510062704 | 10 | 44 | 0.0 | 4.8 | 0.00 | 0.00 | 0.00 | 96 | 1029.4 |
| 20260510062200 | 10 | 257 | 3.2 | 6.4 | 0.00 | 0.00 | 0.00 | 96 | 1029.1 |
| 20260510061655 | 10 | 321 | 0.0 | 4.8 | 0.00 | 0.00 | 0.00 | 96 | 1029.1 |
| 20260510061152 | 10 | 141 | 0.0 | 3.2 | 0.00 | 0.00 | 0.00 | 96 | 1029.1 |
| 20260510060649 | 10 | 179 | 1.6 | 4.8 | 0.00 | 0.00 | 0.00 | 96 | 1028.9 |
| 20260510060145 | 10 | 11 | 0.0 | 3.2 | 0.00 | 0.00 | 0.00 | 96 | 1029.0 |
| 20260510055641 | 10 | 239 | 3.2 | 6.4 | 0.00 | 0.00 | 0.00 | 96 | 1028.9 |
| 20260510055140 | 10 | 222 | 0.0 | 3.2 | 0.00 | 0.00 | 0.00 | 96 | 1029.0 |
| 20260510054635 | 10 | 241 | 1.6 | 4.8 | 0.00 | 0.00 | 0.00 | 96 | 1028.8 |
| 20260510054131 | 10 | 322 | 3.2 | 8.0 | 0.00 | 0.00 | 0.00 | 96 | 1028.9 |
| 20260510053630 | 10 | 306 | 1.6 | 14.5 | 0.00 | 0.00 | 0.00 | 96 | 1029.1 |
| 20260510053127 | 10 | 296 | 4.8 | 11.3 | 0.00 | 0.00 | 0.00 | 95 | 1029.2 |
| 20260510052623 | 10 | 287 | 3.2 | 6.4 | 0.00 | 0.00 | 0.00 | 95 | 1028.9 |
| 20260510052119 | 10 | 325 | 3.2 | 11.3 | 0.00 | 0.00 | 0.00 | 95 | 1028.7 |
| 20260510051614 | 10 | 304 | 3.2 | 4.8 | 0.00 | 0.00 | 0.00 | 94 | 1028.5 |
| 20260510051112 | 10 | 313 | 0.0 | 4.8 | 0.00 | 0.00 | 0.00 | 94 | 1028.5 |
| 20260510050609 | 11 | 314 | 3.2 | 6.4 | 0.00 | 0.00 | 0.00 | 94 | 1028.3 |
| 20260510050106 | 11 | 22 | 1.6 | 4.8 | 0.00 | 0.00 | 0.00 | 94 | 1028.2 |
| 20260510045603 | 11 | 10 | 3.2 | 3.2 | 0.00 | 0.00 | 0.00 | 94 | 1027.9 |
| 20260510045059 | 11 | 49 | 4.8 | 6.4 | 0.00 | 0.00 | 0.00 | 94 | 1027.5 |
| 20260510044556 | 11 | 30 | 3.2 | 4.8 | 0.00 | 0.00 | 0.00 | 94 | 1027.6 |
| 20260510044053 | 11 | 88 | 1.6 | 4.8 | 0.00 | 0.00 | 0.00 | 94 | 1027.5 |
| 20260510043549 | 11 | 60 | 3.2 | 4.8 | 0.00 | 0.00 | 0.00 | 93 | 1027.3 |
| 20260510043045 | 11 | 154 | 1.6 | 3.2 | 0.00 | 0.00 | 0.00 | 93 | 1027.7 |
| 20260510042544 | 11 | 164 | 0.0 | 4.8 | 0.00 | 0.00 | 0.00 | 92 | 1027.6 |
| 20260510042039 | 12 | 77 | 1.6 | 3.2 | 0.00 | 0.00 | 0.00 | 90 | 1027.4 |
| 20260510041537 | 12 | 284 | 0.0 | 4.8 | 0.00 | 0.00 | 0.00 | 89 | 1027.0 |
| 20260510041034 | 12 | 250 | 4.8 | 8.0 | 0.00 | 0.00 | 0.00 | 89 | 1027.0 |
| 20260510040531 | 12 | 242 | 3.2 | 6.4 | 0.00 | 0.00 | 0.00 | 89 | 1027.0 |
| 20260510040027 | 12 | 223 | 1.6 | 12.9 | 0.00 | 0.00 | 0.00 | 89 | 1027.0 |
| 20260510035523 | 12 | 211 | 4.8 | 11.3 | 0.00 | 1.14 | 1.14 | 89 | 1026.7 |
| 20260510035023 | 12 | 244 | 3.2 | 12.9 | 0.00 | 1.14 | 1.14 | 88 | 1026.8 |
| 20260510034521 | 12 | 250 | 6.4 | 11.3 | 0.00 | 1.14 | 1.14 | 88 | 1026.9 |
| 20260510034018 | 12 | 259 | 4.8 | 9.7 | 0.00 | 1.14 | 1.14 | 88 | 1026.8 |
| 20260510033513 | 12 | 227 | 8.0 | 12.9 | 0.00 | 1.14 | 1.14 | 88 | 1026.8 |
| 20260510033012 | 12 | 208 | 6.4 | 17.7 | 0.00 | 1.14 | 1.14 | 88 | 1026.6 |
| 20260510032508 | 12 | 204 | 3.2 | 11.3 | 0.00 | 1.14 | 1.14 | 87 | 1026.5 |
| 20260510032008 | 12 | 232 | 9.7 | 14.5 | 0.00 | 1.14 | 1.14 | 87 | 1026.6 |
| 20260510031504 | 12 | 222 | 6.4 | 14.5 | 0.00 | 1.14 | 1.14 | 87 | 1026.5 |
| 20260510031000 | 12 | 258 | 8.0 | 14.5 | 0.00 | 1.14 | 1.14 | 87 | 1026.8 |
| 20260510030455 | 12 | 255 | 12.9 | 17.7 | 0.00 | 1.14 | 1.14 | 87 | 1026.7 |
| 20260510025953 | 12 | 239 | 12.9 | 16.1 | 0.00 | 1.14 | 1.14 | 87 | 1026.6 |
| 20260510025450 | 12 | 241 | 8.0 | 12.9 | 0.00 | 1.14 | 1.14 | 87 | 1026.7 |
| 20260510024947 | 12 | 226 | 4.8 | 14.5 | 0.00 | 1.14 | 1.14 | 88 | 1026.7 |
| 20260510024444 | 12 | 214 | 6.4 | 20.9 | 0.00 | 1.14 | 1.14 | 87 | 1026.8 |
| 20260510023939 | 12 | 227 | 3.2 | 17.7 | 0.00 | 1.14 | 1.14 | 88 | 1026.6 |
| 20260510023436 | 12 | 252 | 8.0 | 11.3 | 0.00 | 1.14 | 1.14 | 88 | 1026.6 |
| 20260510022933 | 12 | 235 | 3.2 | 9.7 | 0.00 | 1.14 | 1.14 | 88 | 1026.7 |
| 20260510022432 | 12 | 204 | 4.8 | 11.3 | 0.00 | 1.14 | 1.14 | 87 | 1026.6 |
| 20260510021931 | 12 | 235 | 6.4 | 20.9 | 0.00 | 1.14 | 1.14 | 87 | 1026.5 |
| 20260510021430 | 12 | 208 | 1.6 | 14.5 | 0.00 | 1.14 | 1.14 | 87 | 1026.6 |
| 20260510020926 | 12 | 229 | 8.0 | 16.1 | 0.00 | 1.14 | 1.14 | 87 | 1026.3 |
| 20260510020421 | 12 | 251 | 8.0 | 14.5 | 0.00 | 1.14 | 1.14 | 88 | 1026.1 |
| 20260510015917 | 12 | 216 | 4.8 | 11.3 | 0.00 | 1.14 | 1.14 | 88 | 1026.4 |
| 20260510015413 | 12 | 252 | 4.8 | 16.1 | 0.00 | 1.14 | 1.14 | 88 | 1026.4 |
| 20260510014908 | 12 | 250 | 6.4 | 11.3 | 0.00 | 1.14 | 1.14 | 88 | 1026.3 |
| 20260510014406 | 12 | 209 | 3.2 | 11.3 | 0.00 | 1.14 | 1.14 | 88 | 1026.3 |
| 20260510013902 | 12 | 224 | 3.2 | 14.5 | 0.00 | 1.14 | 1.14 | 88 | 1026.5 |
| 20260510013357 | 12 | 221 | 9.7 | 20.9 | 0.00 | 1.14 | 1.14 | 88 | 1026.3 |
| 20260510012852 | 12 | 241 | 3.2 | 11.3 | 0.00 | 1.14 | 1.14 | 88 | 1026.1 |
| 20260510012347 | 12 | 254 | 12.9 | 17.7 | 0.00 | 1.14 | 1.14 | 89 | 1026.0 |
| 20260510011842 | 12 | 252 | 12.9 | 19.3 | 0.00 | 1.14 | 1.14 | 89 | 1026.2 |
| 20260510011337 | 12 | 232 | 4.8 | 12.9 | 0.00 | 1.14 | 1.14 | 89 | 1026.0 |
| 20260510010834 | 12 | 240 | 11.3 | 14.5 | 0.00 | 1.14 | 1.14 | 90 | 1026.1 |
| 20260510010332 | 11 | 219 | 9.7 | 16.1 | 0.00 | 1.14 | 1.14 | 90 | 1025.6 |
| 20260510005828 | 11 | 227 | 8.0 | 14.5 | 0.00 | 1.14 | 1.14 | 92 | 1025.6 |
| 20260510005324 | 11 | 215 | 0.0 | 11.3 | 0.00 | 1.14 | 1.14 | 92 | 1025.8 |
| 20260510004822 | 11 | 274 | 4.8 | 11.3 | 0.00 | 1.14 | 1.14 | 92 | 1025.3 |
| 20260510004319 | 11 | 225 | 6.4 | 12.9 | 0.00 | 1.14 | 1.14 | 92 | 1025.4 |
| 20260510003817 | 11 | 252 | 8.0 | 12.9 | 0.00 | 1.14 | 1.14 | 93 | 1025.3 |
| 20260510003314 | 11 | 253 | 4.8 | 16.1 | 0.00 | 1.14 | 1.14 | 94 | 1025.8 |
| 20260510002813 | 11 | 218 | 8.0 | 14.5 | 0.00 | 1.14 | 1.14 | 95 | 1025.4 |
| 20260510002310 | 11 | 235 | 8.0 | 17.7 | 0.00 | 1.14 | 1.14 | 96 | 1025.4 |
| 20260510001806 | 11 | 225 | 11.3 | 20.9 | 0.30 | 1.14 | 1.14 | 97 | 1025.0 |
| 20260510001305 | 11 | 225 | 20.9 | 32.2 | 0.43 | 1.14 | 1.14 | 98 | 1025.4 |
| 20260510000800 | 10 | 241 | 12.9 | 27.4 | 0.66 | 1.09 | 1.09 | 98 | 1026.1 |
| 20260510000258 | 10 | 223 | 8.0 | 17.7 | 0.61 | 1.07 | 1.07 | 99 | 1026.4 |
| 20260509235755 | 10 | 222 | 12.9 | 17.7 | 0.53 | 0.99 | 0.99 | 99 | 1026.6 |
| 20260509235251 | 10 | 226 | 8.0 | 12.9 | 0.71 | 0.99 | 0.99 | 99 | 1026.5 |
| 20260509234747 | 10 | 252 | 1.6 | 11.3 | 0.61 | 0.89 | 0.89 | 99 | 1026.6 |
| 20260509234244 | 10 | 256 | 8.0 | 11.3 | 0.79 | 0.86 | 0.86 | 99 | 1026.8 |
| 20260509233743 | 10 | 220 | 3.2 | 11.3 | 0.71 | 0.81 | 0.81 | 98 | 1027.1 |
| 20260509233240 | 10 | 242 | 8.0 | 11.3 | 0.66 | 0.71 | 0.71 | 98 | 1027.2 |
| 20260509232735 | 10 | 258 | 8.0 | 12.9 | 0.61 | 0.66 | 0.66 | 98 | 1027.0 |
| 20260509232233 | 10 | 322 | 0.0 | 12.9 | 0.48 | 0.61 | 0.61 | 98 | 1026.9 |
| 20260509231729 | 10 | 325 | 4.8 | 9.7 | 0.66 | 0.56 | 0.56 | 98 | 1026.8 |
| 20260509231226 | 10 | 11 | 4.8 | 8.0 | 1.02 | 0.53 | 0.53 | 97 | 1026.3 |
| 20260509230724 | 10 | 87 | 4.8 | 8.0 | 1.32 | 0.46 | 0.46 | 97 | 1026.3 |
| 20260509230221 | 10 | 17 | 3.2 | 24.1 | 1.75 | 0.33 | 0.33 | 96 | 1026.5 |
| 20260509225716 | 10 | 288 | 3.2 | 24.1 | 1.19 | 0.20 | 0.20 | 95 | 1026.3 |
| 20260509225212 | 11 | 30 | 9.7 | 24.1 | 0.30 | 0.05 | 0.05 | 91 | 1026.0 |
| 20260509224708 | 12 | 305 | 9.7 | 20.9 | 0.00 | 0.00 | 0.00 | 89 | 1026.4 |
| 20260509224205 | 12 | 13 | 4.8 | 8.0 | 0.00 | 0.00 | 0.00 | 89 | 1025.4 |
| 20260509223702 | 13 | 48 | 4.8 | 4.8 | 0.00 | 0.00 | 0.00 | 87 | 1024.2 |
| 20260509223159 | 13 | 171 | 3.2 | 9.7 | 0.00 | 0.00 | 0.00 | 86 | 1024.1 |
| 20260509222656 | 13 | 15 | 3.2 | 6.4 | 0.00 | 0.00 | 0.00 | 86 | 1024.0 |
| 20260509222151 | 13 | 336 | 1.6 | 3.2 | 0.00 | 0.00 | 0.00 | 85 | 1023.7 |
| 20260509221647 | 13 | 20 | 1.6 | 4.8 | 0.00 | 0.00 | 0.00 | 86 | 1024.0 |
| 20260509221143 | 13 | 0 | 3.2 | 4.8 | 0.00 | 0.00 | 0.00 | 84 | 1023.8 |
| 20260509220639 | 13 | 351 | 3.2 | 4.8 | 0.00 | 0.00 | 0.00 | 84 | 1023.4 |
| 20260509220136 | 14 | 336 | 4.8 | 6.4 | 0.00 | 0.00 | 0.00 | 83 | 1023.4 |
| 20260509215632 | 14 | 78 | 1.6 | 4.8 | 0.00 | 0.00 | 0.00 | 82 | 1023.3 |
| 20260509215128 | 14 | 40 | 0.0 | 4.8 | 0.00 | 0.00 | 0.00 | 82 | 1023.4 |
| 20260509214626 | 14 | 334 | 0.0 | 4.8 | 0.00 | 0.00 | 0.00 | 81 | 1023.3 |
| 20260509214122 | 15 | 42 | 0.0 | 8.0 | 0.00 | 0.00 | 0.00 | 79 | 1023.4 |
| 20260509213619 | 15 | 348 | 4.8 | 6.4 | 0.00 | 0.00 | 0.00 | 78 | 1023.5 |
| 20260509213115 | 16 | 27 | 1.6 | 8.0 | 0.00 | 0.00 | 0.00 | 77 | 1023.4 |
| 20260509212613 | 15 | 28 | 6.4 | 8.0 | 0.00 | 0.00 | 0.00 | 76 | 1023.2 |
| 20260509212110 | 15 | 344 | 3.2 | 4.8 | 0.00 | 0.00 | 0.00 | 78 | 1023.4 |
| 20260509211605 | 15 | 77 | 0.0 | 3.2 | 0.00 | 0.00 | 0.00 | 79 | 1023.1 |
| 20260509211102 | 15 | 334 | 1.6 | 4.8 | 0.00 | 0.00 | 0.00 | 79 | 1023.3 |
| 20260509210559 | 14 | 230 | 0.0 | 4.8 | 0.00 | 0.00 | 0.00 | 80 | 1023.2 |
| 20260509210056 | 15 | 312 | 4.8 | 6.4 | 0.00 | 0.00 | 0.00 | 79 | 1023.5 |
| 20260509205555 | 15 | 34 | 3.2 | 6.4 | 0.00 | 0.00 | 0.00 | 78 | 1023.9 |
| 20260509205050 | 16 | 331 | 4.8 | 11.3 | 0.00 | 0.00 | 0.00 | 74 | 1023.7 |
| 20260509204548 | 18 | 276 | 4.8 | 11.3 | 0.00 | 0.00 | 0.00 | 64 | 1023.9 |
| 20260509204044 | 19 | 260 | 9.7 | 35.4 | 0.00 | 0.00 | 0.00 | 56 | 1023.6 |
| 20260509203539 | 19 | 234 | 16.1 | 24.1 | 0.00 | 0.00 | 0.00 | 56 | 1023.5 |
| 20260509203038 | 18 | 242 | 8.0 | 20.9 | 0.00 | 0.00 | 0.00 | 57 | 1023.5 |
| 20260509202532 | 18 | 256 | 17.7 | 24.1 | 0.00 | 0.00 | 0.00 | 56 | 1023.6 |
| 20260509202028 | 19 | 217 | 16.1 | 32.2 | 0.00 | 0.00 | 0.00 | 56 | 1023.6 |
| 20260509201524 | 19 | 271 | 14.5 | 22.5 | 0.00 | 0.00 | 0.00 | 56 | 1023.7 |
| 20260509201021 | 19 | 271 | 6.4 | 24.1 | 0.00 | 0.00 | 0.00 | 55 | 1023.6 |
| 20260509200516 | 19 | 265 | 6.4 | 20.9 | 0.00 | 0.00 | 0.00 | 57 | 1023.7 |
| 20260509200013 | 20 | 253 | 29.0 | 32.2 | 0.00 | 0.00 | 0.00 | 54 | 1023.7 |
| 20260509195508 | 19 | 280 | 3.2 | 22.5 | 0.00 | 0.00 | 0.00 | 58 | 1023.9 |
| 20260509195007 | 19 | 249 | 8.0 | 12.9 | 0.00 | 0.00 | 0.00 | 64 | 1024.2 |
| 20260509194504 | 18 | 232 | 4.8 | 17.7 | 0.00 | 0.00 | 0.00 | 65 | 1024.2 |
| 20260509194001 | 18 | 308 | 4.8 | 8.0 | 0.00 | 0.00 | 0.00 | 68 | 1024.0 |
| 20260509193500 | 17 | 272 | 4.8 | 11.3 | 0.00 | 0.00 | 0.00 | 69 | 1024.4 |
| 20260509192956 | 17 | 273 | 3.2 | 9.7 | 0.00 | 0.00 | 0.00 | 67 | 1024.5 |
| 20260509192453 | 18 | 253 | 6.4 | 14.5 | 0.00 | 0.00 | 0.00 | 68 | 1024.5 |
| 20260509191948 | 17 | 73 | 3.2 | 9.7 | 0.00 | 0.00 | 0.00 | 71 | 1024.4 |
| 20260509191444 | 16 | 337 | 4.8 | 11.3 | 0.00 | 0.00 | 0.00 | 71 | 1024.5 |
| 20260509190940 | 17 | 256 | 4.8 | 8.0 | 0.00 | 0.00 | 0.00 | 71 | 1024.7 |
| 20260509190437 | 17 | 261 | 4.8 | 12.9 | 0.00 | 0.00 | 0.00 | 72 | 1024.9 |
| 20260509185935 | 17 | 307 | 12.9 | 12.9 | 0.00 | 0.00 | 0.00 | 70 | 1025.1 |
| 20260509185432 | 17 | 293 | 6.4 | 9.7 | 0.00 | 0.00 | 0.00 | 70 | 1025.2 |
| 20260509184928 | 17 | 345 | 11.3 | 14.5 | 0.00 | 0.00 | 0.00 | 69 | 1025.3 |
| 20260509184426 | 17 | 257 | 4.8 | 9.7 | 0.00 | 0.00 | 0.00 | 72 | 1025.1 |
| 20260509183922 | 17 | 297 | 4.8 | 11.3 | 0.00 | 0.00 | 0.00 | 73 | 1025.2 |
| 20260509183417 | 17 | 309 | 3.2 | 12.9 | 0.00 | 0.00 | 0.00 | 72 | 1025.1 |
| 20260509182914 | 16 | 293 | 6.4 | 17.7 | 0.00 | 0.00 | 0.00 | 74 | 1025.0 |
| 20260509182410 | 16 | 335 | 6.4 | 12.9 | 0.00 | 0.00 | 0.00 | 74 | 1024.9 |
| 20260509181908 | 16 | 256 | 6.4 | 17.7 | 0.00 | 0.00 | 0.00 | 72 | 1025.0 |
| 20260509181405 | 16 | 302 | 11.3 | 16.1 | 0.00 | 0.00 | 0.00 | 73 | 1025.2 |
| 20260509180902 | 16 | 338 | 8.0 | 12.9 | 0.00 | 0.00 | 0.00 | 73 | 1025.6 |
| 20260509180358 | 17 | 248 | 8.0 | 11.3 | 0.00 | 0.00 | 0.00 | 71 | 1025.1 |
| 20260509175855 | 17 | 317 | 8.0 | 12.9 | 0.00 | 0.00 | 0.00 | 73 | 1025.1 |
| 20260509175351 | 16 | 317 | 4.8 | 9.7 | 0.00 | 0.00 | 0.00 | 74 | 1025.4 |
| 20260509174847 | 17 | 271 | 8.0 | 12.9 | 0.00 | 0.00 | 0.00 | 71 | 1025.3 |
| 20260509174343 | 16 | 256 | 8.0 | 14.5 | 0.00 | 0.00 | 0.00 | 73 | 1025.4 |
| 20260509173839 | 16 | 254 | 8.0 | 17.7 | 0.00 | 0.00 | 0.00 | 73 | 1025.6 |
| 20260509173335 | 16 | 274 | 8.0 | 11.3 | 0.00 | 0.00 | 0.00 | 73 | 1026.1 |
| 20260509172831 | 16 | 315 | 8.0 | 14.5 | 0.00 | 0.00 | 0.00 | 74 | 1025.9 |
| 20260509172328 | 16 | 257 | 9.7 | 17.7 | 0.00 | 0.00 | 0.00 | 73 | 1026.0 |
| 20260509171824 | 16 | 244 | 9.7 | 19.3 | 0.00 | 0.00 | 0.00 | 74 | 1026.1 |
| 20260509171319 | 16 | 258 | 4.8 | 20.9 | 0.00 | 0.00 | 0.00 | 76 | 1026.1 |
| 20260509170816 | 15 | 271 | 4.8 | 12.9 | 0.00 | 0.00 | 0.00 | 75 | 1026.0 |
| 20260509170312 | 15 | 280 | 4.8 | 8.0 | 0.00 | 0.00 | 0.00 | 77 | 1025.9 |
| 20260509165812 | 15 | 325 | 4.8 | 11.3 | 0.00 | 0.00 | 0.00 | 79 | 1026.2 |
| 20260509165307 | 15 | 255 | 11.3 | 14.5 | 0.00 | 0.00 | 0.00 | 80 | 1026.4 |
| 20260509164803 | 15 | 289 | 4.8 | 14.5 | 0.00 | 0.00 | 0.00 | 79 | 1026.3 |
| 20260509164259 | 15 | 241 | 3.2 | 6.4 | 0.00 | 0.00 | 0.00 | 77 | 1026.2 |
| 20260509163755 | 15 | 247 | 8.0 | 16.1 | 0.00 | 0.00 | 0.00 | 76 | 1026.5 |
| 20260509163247 | 14 | 235 | 9.7 | 12.9 | 0.00 | 0.00 | 0.00 | 79 | 1026.4 |
| 20260509162746 | 14 | 307 | 6.4 | 11.3 | 0.00 | 0.00 | 0.00 | 81 | 1026.7 |
| 20260509162245 | 14 | 264 | 6.4 | 9.7 | 0.00 | 0.00 | 0.00 | 80 | 1026.5 |
| 20260509161741 | 13 | 286 | 6.4 | 11.3 | 0.00 | 0.00 | 0.00 | 82 | 1026.6 |
| 20260509161237 | 14 | 285 | 11.3 | 14.5 | 0.00 | 0.00 | 0.00 | 81 | 1026.8 |
| 20260509160732 | 14 | 266 | 6.4 | 11.3 | 0.00 | 0.00 | 0.00 | 81 | 1026.7 |
| 20260509160229 | 14 | 312 | 4.8 | 11.3 | 0.00 | 0.00 | 0.00 | 80 | 1026.5 |
| 20260509155724 | 14 | 317 | 1.6 | 8.0 | 0.00 | 0.00 | 0.00 | 81 | 1026.8 |
| 20260509155221 | 14 | 286 | 3.2 | 8.0 | 0.00 | 0.00 | 0.00 | 80 | 1026.6 |
| 20260509154717 | 14 | 0 | 4.8 | 9.7 | 0.00 | 0.00 | 0.00 | 80 | 1026.8 |
| 20260509154214 | 15 | 335 | 4.8 | 9.7 | 0.00 | 0.00 | 0.00 | 79 | 1026.8 |
| 20260509153711 | 15 | 266 | 6.4 | 11.3 | 0.00 | 0.00 | 0.00 | 77 | 1026.8 |
| 20260509153208 | 15 | 266 | 6.4 | 22.5 | 0.00 | 0.00 | 0.00 | 76 | 1026.7 |
| 20260509152704 | 15 | 266 | 11.3 | 14.5 | 0.00 | 0.00 | 0.00 | 77 | 1026.8 |
| 20260509152200 | 15 | 207 | 4.8 | 14.5 | 0.00 | 0.00 | 0.00 | 76 | 1026.7 |
| 20260509151657 | 15 | 204 | 6.4 | 14.5 | 0.00 | 0.00 | 0.00 | 78 | 1026.6 |
| 20260509151154 | 15 | 218 | 6.4 | 22.5 | 0.00 | 0.00 | 0.00 | 79 | 1026.7 |
| 20260509150652 | 14 | 242 | 4.8 | 24.1 | 0.00 | 0.00 | 0.00 | 79 | 1026.7 |
| 20260509150150 | 15 | 255 | 14.5 | 20.9 | 0.00 | 0.00 | 0.00 | 78 | 1026.7 |
| 20260509145646 | 14 | 246 | 4.8 | 12.9 | 0.00 | 0.00 | 0.00 | 78 | 1026.8 |
| 20260509145141 | 15 | 205 | 9.7 | 17.7 | 0.00 | 0.00 | 0.00 | 78 | 1026.7 |
| 20260509144638 | 15 | 249 | 8.0 | 19.3 | 0.00 | 0.00 | 0.00 | 78 | 1026.6 |
| 20260509144136 | 14 | 231 | 4.8 | 17.7 | 0.00 | 0.00 | 0.00 | 78 | 1026.7 |
| 20260509143633 | 14 | 217 | 8.0 | 17.7 | 0.00 | 0.00 | 0.00 | 79 | 1026.6 |
| 20260509143130 | 13 | 261 | 11.3 | 11.3 | 0.00 | 0.00 | 0.00 | 79 | 1026.5 |
| 20260509142625 | 15 | 235 | 11.3 | 24.1 | 0.00 | 0.00 | 0.00 | 79 | 1026.9 |
| 20260509142122 | 14 | 272 | 9.7 | 17.7 | 0.00 | 0.00 | 0.00 | 79 | 1026.6 |
| 20260509141618 | 13 | 230 | 6.4 | 19.3 | 0.00 | 0.00 | 0.00 | 79 | 1026.5 |
| 20260509141114 | 13 | 238 | 8.0 | 19.3 | 0.00 | 0.00 | 0.00 | 81 | 1026.5 |
| 20260509140612 | 13 | 258 | 1.6 | 14.5 | 0.00 | 0.00 | 0.00 | 80 | 1026.7 |
| 20260509140110 | 13 | 220 | 4.8 | 22.5 | 0.00 | 0.00 | 0.00 | 81 | 1026.9 |
| 20260509135607 | 13 | 244 | 14.5 | 20.9 | 0.00 | 0.00 | 0.00 | 82 | 1026.8 |
| 20260509135105 | 13 | 262 | 14.5 | 17.7 | 0.00 | 0.00 | 0.00 | 82 | 1026.9 |
| 20260509134601 | 13 | 253 | 11.3 | 17.7 | 0.00 | 0.00 | 0.00 | 82 | 1026.9 |
| 20260509134058 | 13 | 203 | 11.3 | 17.7 | 0.00 | 0.00 | 0.00 | 82 | 1027.0 |
| 20260509133555 | 13 | 237 | 4.8 | 20.9 | 0.00 | 0.00 | 0.00 | 84 | 1026.9 |
| 20260509133053 | 13 | 240 | 11.3 | 24.1 | 0.00 | 0.00 | 0.00 | 83 | 1026.9 |
| 20260509132551 | 13 | 231 | 9.7 | 16.1 | 0.00 | 0.00 | 0.00 | 83 | 1026.9 |
| 20260509132049 | 12 | 234 | 4.8 | 25.7 | 0.00 | 0.00 | 0.00 | 85 | 1027.1 |
| 20260509131545 | 12 | 220 | 8.0 | 16.1 | 0.00 | 0.00 | 0.00 | 85 | 1027.0 |
| 20260509131042 | 12 | 213 | 14.5 | 20.9 | 0.00 | 0.00 | 0.00 | 84 | 1027.0 |
| 20260509130537 | 12 | 239 | 12.9 | 12.9 | 0.00 | 0.00 | 0.00 | 85 | 1027.1 |
| 20260509130034 | 12 | 228 | 9.7 | 17.7 | 0.00 | 0.00 | 0.00 | 85 | 1027.1 |
| 20260509125531 | 12 | 221 | 8.0 | 16.1 | 0.00 | 0.00 | 0.00 | 86 | 1027.3 |
| 20260509125028 | 12 | 235 | 9.7 | 17.7 | 0.00 | 0.00 | 0.00 | 86 | 1027.2 |
| 20260509124524 | 12 | 203 | 3.2 | 16.1 | 0.00 | 0.00 | 0.00 | 86 | 1027.2 |
| 20260509124022 | 12 | 213 | 4.8 | 16.1 | 0.00 | 0.00 | 0.00 | 87 | 1027.4 |
| 20260509123520 | 12 | 223 | 4.8 | 19.3 | 0.00 | 0.00 | 0.00 | 87 | 1027.3 |
| 20260509123015 | 12 | 233 | 16.1 | 20.9 | 0.00 | 0.00 | 0.00 | 87 | 1027.4 |
| 20260509122512 | 12 | 228 | 12.9 | 14.5 | 0.00 | 0.00 | 0.00 | 88 | 1027.6 |
| 20260509122009 | 12 | 219 | 9.7 | 12.9 | 0.00 | 0.00 | 0.00 | 88 | 1027.5 |
| 20260509121505 | 12 | 248 | 6.4 | 14.5 | 0.00 | 0.00 | 0.00 | 88 | 1027.5 |
| 20260509121003 | 12 | 245 | 4.8 | 14.5 | 0.00 | 0.00 | 0.00 | 89 | 1027.6 |
| 20260509120501 | 12 | 230 | 6.4 | 11.3 | 0.00 | 0.00 | 0.00 | 89 | 1027.5 |
| 20260509115959 | 11 | 206 | 8.0 | 16.1 | 0.00 | 0.00 | 0.00 | 90 | 1027.6 |
| 20260509115456 | 11 | 210 | 4.8 | 11.3 | 0.00 | 0.00 | 0.00 | 90 | 1027.6 |
| 20260509114953 | 11 | 212 | 4.8 | 14.5 | 0.00 | 0.00 | 0.00 | 90 | 1027.6 |
| 20260509114451 | 11 | 209 | 4.8 | 8.0 | 0.00 | 0.00 | 0.00 | 90 | 1027.7 |
| 20260509113951 | 11 | 211 | 6.4 | 11.3 | 0.00 | 0.00 | 0.00 | 90 | 1027.6 |
| 20260509113447 | 11 | 213 | 6.4 | 17.7 | 0.00 | 0.00 | 0.00 | 90 | 1027.4 |
| 20260509112944 | 11 | 217 | 3.2 | 8.0 | 0.00 | 0.00 | 0.00 | 91 | 1027.4 |
| 20260509112442 | 11 | 237 | 4.8 | 12.9 | 0.00 | 0.00 | 0.00 | 91 | 1027.7 |
| 20260509111938 | 11 | 166 | 3.2 | 11.3 | 0.00 | 0.00 | 0.00 | 91 | 1027.2 |
| 20260509111436 | 11 | 212 | 4.8 | 8.0 | 0.00 | 0.00 | 0.00 | 91 | 1027.5 |
| 20260509110933 | 11 | 180 | 3.2 | 8.0 | 0.00 | 0.00 | 0.00 | 91 | 1027.4 |
| 20260509110429 | 11 | 216 | 0.0 | 8.0 | 0.00 | 0.00 | 0.00 | 91 | 1027.5 |
| 20260509105927 | 11 | 198 | 4.8 | 11.3 | 0.00 | 0.00 | 0.00 | 91 | 1027.5 |
| 20260509105426 | 11 | 236 | 6.4 | 12.9 | 0.00 | 0.00 | 0.00 | 91 | 1027.4 |
| 20260509104922 | 11 | 207 | 3.2 | 8.0 | 0.00 | 0.00 | 0.00 | 92 | 1027.3 |
| 20260509104419 | 11 | 216 | 3.2 | 4.8 | 0.00 | 0.00 | 0.00 | 91 | 1027.3 |
| 20260509103916 | 11 | 198 | 1.6 | 8.0 | 0.00 | 0.00 | 0.00 | 91 | 1027.6 |
| 20260509103413 | 11 | 213 | 1.6 | 9.7 | 0.00 | 0.00 | 0.00 | 91 | 1027.8 |
| 20260509102912 | 11 | 209 | 4.8 | 4.8 | 0.00 | 0.00 | 0.00 | 92 | 1027.5 |
| 20260509102409 | 11 | 236 | 3.2 | 6.4 | 0.00 | 0.00 | 0.00 | 92 | 1027.5 |
| 20260509101905 | 11 | 213 | 1.6 | 4.8 | 0.00 | 0.00 | 0.00 | 92 | 1027.6 |
| 20260509101400 | 11 | 254 | 3.2 | 4.8 | 0.00 | 0.00 | 0.00 | 92 | 1027.4 |
| 20260509100859 | 11 | 206 | 3.2 | 12.9 | 0.00 | 0.00 | 0.00 | 92 | 1027.6 |
| 20260509100356 | 10 | 281 | 0.0 | 6.4 | 0.00 | 0.00 | 0.00 | 93 | 1027.6 |
| 20260509095852 | 10 | 248 | 3.2 | 8.0 | 0.00 | 0.00 | 0.00 | 93 | 1027.7 |
| 20260509095350 | 10 | 226 | 8.0 | 9.7 | 0.00 | 0.00 | 0.00 | 93 | 1027.6 |
| 20260509094847 | 10 | 211 | 4.8 | 8.0 | 0.00 | 0.00 | 0.00 | 93 | 1027.6 |
| 20260509094343 | 10 | 201 | 3.2 | 4.8 | 0.00 | 0.00 | 0.00 | 93 | 1027.6 |
| 20260509093841 | 10 | 199 | 3.2 | 4.8 | 0.00 | 0.00 | 0.00 | 94 | 1027.5 |
| 20260509093338 | 10 | 252 | 3.2 | 3.2 | 0.00 | 0.00 | 0.00 | 93 | 1027.6 |
| 20260509092837 | 10 | 255 | 1.6 | 6.4 | 0.00 | 0.00 | 0.00 | 93 | 1027.8 |
| 20260509092334 | 10 | 255 | 0.0 | 8.0 | 0.00 | 0.00 | 0.00 | 93 | 1027.5 |
| 20260509091832 | 10 | 239 | 4.8 | 8.0 | 0.00 | 0.00 | 0.00 | 92 | 1027.5 |
| 20260509091328 | 10 | 186 | 0.0 | 4.8 | 0.00 | 0.00 | 0.00 | 92 | 1027.6 |
| 20260509090826 | 10 | 212 | 4.8 | 9.7 | 0.00 | 0.00 | 0.00 | 92 | 1027.6 |
| 20260509090323 | 10 | 197 | 4.8 | 11.3 | 0.00 | 0.00 | 0.00 | 92 | 1027.5 |
| 20260509085820 | 10 | 269 | 3.2 | 9.7 | 0.00 | 0.00 | 0.00 | 91 | 1027.6 |
| 20260509085318 | 10 | 269 | 1.6 | 8.0 | 0.00 | 0.00 | 0.00 | 91 | 1027.4 |
| 20260509084814 | 10 | 196 | 1.6 | 12.9 | 0.00 | 0.00 | 0.00 | 91 | 1027.5 |
| 20260509084311 | 10 | 181 | 3.2 | 9.7 | 0.00 | 0.00 | 0.00 | 91 | 1027.7 |
| 20260509083809 | 10 | 143 | 1.6 | 8.0 | 0.00 | 0.00 | 0.00 | 91 | 1027.5 |
| 20260509083305 | 10 | 227 | 8.0 | 11.3 | 0.00 | 0.00 | 0.00 | 91 | 1027.8 |
| 20260509082802 | 10 | 227 | 1.6 | 8.0 | 0.00 | 0.00 | 0.00 | 91 | 1027.6 |
| 20260509082258 | 10 | 259 | 3.2 | 4.8 | 0.00 | 0.00 | 0.00 | 91 | 1027.7 |